Regional Weather Roundup
Issued by NWS

Home | Current Version | Previous Version | Text Only | Print | Product List | Glossary On
Versions: 1 2 3 4 5 6 7 8 9 10 11 12 13 14 15 16 17 18 19 20 21 22 23 24 25 26 27 28 29 30 31 32 33 34 35 36 37 38 39 40 41 42 43 44 45 46 47 48 49 50
000
ASUS44 KOUN 231510
RWROK

WEATHER ROUNDUP FOR OKLAHOMA
NATIONAL WEATHER SERVICE NORMAN OK
1000 AM CDT SAT AUG 23 2014

NOTE: "FAIR" INDICATES FEW OR NO CLOUDS BELOW 12,000 FEET WITH NO
      SIGNIFICANT WEATHER AND/OR OBSTRUCTIONS TO VISIBILITY.

OKZ001>007-009>012-014-015-017-231600-
NORTHWEST OKLAHOMA AND THE PANHANDLE

CITY           SKY/WX    TMP DP  RH WIND       PRES   REMARKS
GAGE           SUNNY     85  58  39 S20       29.93F
ENID/WOODRING  SUNNY     88  57  35 S17G23    29.91F
$$

OKZ016-021>023-033>039-044-045-231600-
SOUTHWEST OKLAHOMA

CITY           SKY/WX    TMP DP  RH WIND       PRES   REMARKS
LAWTON/REGL    SUNNY     88  59  37 SW8       29.97F
LAWTON/FT SILL SUNNY     86  60  40 SW9       29.97S
FREDERICK      SUNNY     87  61  41 SW21      29.94F
CLINTON        SUNNY     87  54  32 S20G26    29.97F
HOBART         SUNNY     86  57  37 SW17      29.97F
ALTUS AFB      SUNNY     87  60  40 S18G26    29.96F
$$

OKZ018>020-024>031-231600-
CENTRAL OKLAHOMA

CITY           SKY/WX    TMP DP  RH WIND       PRES   REMARKS
OKLAHOMA CITY  SUNNY     85  62  46 SW16      29.97F
OKC/WILEY POST SUNNY     86  61  42 SW15      29.97S
OKC/TINKER AFB SUNNY     85  63  47 S15       29.98S
STILLWATER     SUNNY     86  63  45 S10       29.95R
GUTHRIE        SUNNY     87  61  41 SW14      29.95S
$$

OKZ008-013-054>072-231600-
NORTHEAST OKLAHOMA

CITY           SKY/WX    TMP DP  RH WIND       PRES   REMARKS
TULSA          SUNNY     87  67  51 SW10G17   29.95R HX  90
TULSA/JONES    SUNNY     86  67  52 SW13      29.96S
PONCA CITY     SUNNY     86  61  42 S8        29.93R
BARTLESVILLE   SUNNY     88  68  51 VRB6      29.96S HX  91
MUSKOGEE       SUNNY     86  70  58 S13       30.00R HX  90
$$

OKZ032-040>043-046>053-073>077-231600-
SOUTH CENTRAL/SOUTHEAST OKLAHOMA

CITY           SKY/WX    TMP DP  RH WIND       PRES   REMARKS
ARDMORE/DWNTWN SUNNY     86  61  42 SW7       29.99F
MCALESTER      SUNNY     86  70  58 S14G20    30.00S HX  90
$$



USA.gov is the U.S. government's official web portal to all federal, state and local government web resources and services.